Tracking 22440 objects as of 27-Feb-2021
HD Live streaming from Space Station
objects crossing your sky now

ARIANE 42L R/B

Track ARIANE 42L R/B now!
10-day predictions


NORAD ID: 25586
Int'l Code: 1998-075B
Perigee: 153.6 km
Apogee: 5,660.6 km
Inclination: 7.5 °
Period: 148.2 minutes
Semi major axis: 9278 km
RCS: 21.3079 m2 (large)
Launch date: December 22, 1998
Source: France (FR)
Launch site: FRENCH GUIANA (FRGUI)

Note: This is a ROCKET BODY
aabbcc
Your satellite tracking list
Your tracking list is empty




NASA's NSSDC Master Catalog

Two Line Element Set (TLE):
1 25586U 98075B   21057.82175384  .01377632 -36217-5  10704-2 0  9996
2 25586   7.4948  71.2739 2967737  60.4485 325.8915  9.71433027300773
Source of the keplerian elements: AFSPC